Location: Plainartige
(45.6866°N, 1.7993°E)
Time: 18:21:36
(UTC+00:00)

RS-15 - Pass Details

Date: 07 July 2022
Orbit: 1881 x 2163 km, 64.8° (Epoch: 11 August)

Event Time Altitude Azimuth Distance (km) Brightness Sun altitude
Rises 21:42:52 0° 321° (NW) 5,697 12.3 -15.2°
Reaches altitude 10° 21:46:22 10° 323° (NW) 4,693 11.4 -15.6°
Maximum altitude 21:58:50 76° 51° (NE) 2,189 8.2 -16.6°
Enters shadow 22:08:16 20° 135° (SE) 3,826 9.0 -17.4°
